Regional Weather Roundup
Issued by NWS

Home | Current Version | Previous Version | Graphics & Text | Print | Product List | Glossary On
Versions: 1 2 3 4 5 6 7 8 9 10 11 12 13 14 15 16 17 18 19 20 21 22 23 24 25 26 27 28 29 30 31 32 33 34 35 36 37 38 39 40 41 42 43 44 45 46 47 48 49 50
376
ASUS43 KLOT 190608
RWRIL

ILLINOIS REGIONAL WEATHER ROUNDUP
NATIONAL WEATHER SERVICE CHICAGO/ROMEOVILLE IL
1200 AM CST SUN NOV 19 2017

NOTE: "FAIR" INDICATES FEW OR NO CLOUDS BELOW 12,000 FEET WITH NO
SIGNIFICANT WEATHER AND/OR OBSTRUCTIONS TO VISIBILITY.

* THESE STATIONS ARE NOT UNDER NWS QUALITY CONTROL. THEY ALSO MAY NOT
  REPORT WEATHER SUCH AS PRECIPITATION OR FOG.

ILZ001-002-007-009-015-016-024-190700-
NORTHWEST ILLINOIS

CITY           SKY/WX    TMP DP  RH WIND       PRES   REMARKS
MOLINE         CLEAR     30  21  69 W12G21    29.99R WCI  20
6HR MIN TEMP:  30; 6HR MAX TEMP:  41;

STERLING*      CLOUDY    33  25  72 W13       29.94R WCI  24
SAVANNA*       CLEAR     31  23  71 NW9       29.94S WCI  23
$$

ILZ003-004-008-010-011-017-018-190700-
NORTH CENTRAL ILLINOIS

CITY           SKY/WX    TMP DP  RH WIND       PRES   REMARKS
ROCKFORD       CLOUDY    34  25  69 NW13      29.91R WCI  25
6HR MIN TEMP:  33; 6HR MAX TEMP:  36;

FREEPORT*      MOCLDY    31  23  71 NW13G23   29.92R WCI  22
ROCHELLE*      CLOUDY    34  28  80 NW12      29.90R WCI  25
DE KALB*       CLOUDY    34  28  79 NW13      29.88R WCI  25
PERU*          CLOUDY    32  28  82 NW15G21   29.93R WCI  22
$$

ILZ005-006-012>014-019>023-190700-
NORTHEAST ILLINOIS

CITY           SKY/WX    TMP DP  RH WIND       PRES   REMARKS
CHICAGO-OHARE  CLOUDY    38  26  62 NW20G29   29.84R WCI  28
6HR MIN TEMP:  38; 6HR MAX TEMP:  40;

CHICAGO-MIDWAY CLOUDY    38  30  73 NW14G20   29.85R WCI  30
6HR MIN TEMP:  38; 6HR MAX TEMP:  40;

AURORA         CLOUDY    36  30  79 NW15      29.88R WCI  27
6HR MIN TEMP:  35; 6HR MAX TEMP:  39;

LANSING*       CLOUDY    38  31  77 NW9       29.85R WCI  31
JOLIET*        CLOUDY    38  31  76 NW9G17    29.88R WCI  31
WAUKEGAN       CLOUDY    36  27  69 NW9G18    29.83R WCI  29
6HR MIN TEMP:  36; 6HR MAX TEMP:  39;

DUPAGE AIRPORT CLOUDY    36  30  79 NW14      29.85R WCI  27
6HR MIN TEMP:  36; 6HR MAX TEMP:  39;

KANKAKEE*      CLOUDY    37  32  81 NW12      29.88R WCI  29
WHEELING       CLOUDY    38  29  70 NW16      29.85R WCI  29
6HR MIN TEMP:  38; 6HR MAX TEMP:  40;

MORRIS*        CLOUDY    36  31  82 NW13G18   29.88R WCI  27
ROMEOVILLE*    CLOUDY    36  32  85 NW14      29.87R WCI  27
NORTHERLY ISL    N/A     39  28  65 NW13        N/A  WCI  31
$$

LMZ740>746-190700-
SOUTHERN LAKE MICHIGAN

STATION/POSITION SKY/WX   TEMP    WIND        PRES    VSBY  WAVE
                          AIR SEA DIR/SP/G                  HT/PER
                          (F)     (DEG/KT/KT) (MB)    (MI)  (FT/S)
SOUTHERN BUOY              40 49  350/ 23/ 29 1007.7         10/ 8
HARRISON CRIB              40     310/ 21/ 27   N/A
BURNHAM HARBOR             39     300/  9/ 18   N/A
BURNS HARBOR               40     310/ 22/ 27 1009.5R
MICHIGAN CITY              40     300/ 25/ 26   N/A
$$

ILZ025>027-034>036-040-047-049-050-058-095>099-190700-
WEST-CENTRAL ILLINOIS

CITY           SKY/WX    TMP DP  RH WIND       PRES   REMARKS
QUINCY         CLEAR     32  21  64 NW14G22   30.07R WCI  22
GALESBURG*     CLEAR     30  25  82 NW16      30.01R WCI  19
MACOMB*        CLEAR     31  25  78 NW16      30.05R WCI  20
JACKSONVILLE*  CLEAR     32  25  74 NW17G23   30.04R WCI  21
PITTSFIELD*    CLEAR     34  22  62 NW17G28   30.07R WCI  24
$$

ILZ028>032-037-038-041>044-048-051>054-059>061-190700-
CENTRAL ILLINOIS

CITY           SKY/WX    TMP DP  RH WIND       PRES   REMARKS
PONTIAC        CLEAR     33  32  96 W18       29.93R WCI  22
BLOOMINGTON    MOCLDY    31  28  89 NW15      29.95R WCI  20
DECATUR        CLOUDY    35  28  75 NW25G32   29.98R WCI  23
PEORIA         CLOUDY    33  26  75 NW10G23   29.99R WCI  25
6HR MIN TEMP:  33; 6HR MAX TEMP:  39;

LACON*         CLOUDY    33  27  78 NW14      29.96R WCI  23
LINCOLN*       CLOUDY    35  29  81 W9        29.99R WCI  27
SPRINGFIELD    CLOUDY    34  26  72 NW16G31   30.01R WCI  24
6HR MIN TEMP:  34; 6HR MAX TEMP:  41;

TAYLORVILLE    CLOUDY    35  29  80 W14G26    30.00R WCI  25
6HR MIN TEMP:  35; 6HR MAX TEMP:  41;

$$

ILZ033-039-045-046-055>057-062-063-190700-
EAST-CENTRAL ILLINOIS

CITY           SKY/WX    TMP DP  RH WIND       PRES   REMARKS
CHAMPAIGN      MOCLDY    35  30  82 NW17G26   29.94R WCI  25
DANVILLE*      CLOUDY    37  32  84 NW14G22   29.87R WCI  28
RANTOUL*       CLOUDY    36  32  87 NW17G26   29.92R WCI  25
MATTOON        CLOUDY    36  32  85 NW22      29.94R WCI  25
PARIS*         CLOUDY    37  34  88 NW18      29.93R WCI  27
$$

ILZ079-100>102-190700-
SOUTHWEST ILLINOIS

CITY           SKY/WX    TMP DP  RH WIND       PRES   REMARKS
ALTON          CLEAR     37  28  70 NW13G30   30.06R WCI  28
BELLEVILLE     MOCLDY    40  32  72 NW10G18   30.03R
CAHOKIA*       CLEAR     39  26  59 NW21G30   30.07R WCI  29
SPARTA*        MOCLDY    40  32  72 NW9       30.05R
$$

ILZ064>066-069>071-074>076-080>082-084>086-088>090-092>094-190700-
SOUTH-CENTRAL ILLINOIS

CITY           SKY/WX    TMP DP  RH WIND       PRES   REMARKS
CARBONDALE     CLEAR     40  33  76 NW7       30.04R
6HR MIN TEMP:  39; 6HR MAX TEMP:  44;

CAIRO*         CLEAR     42  33  71 NW8       30.05S
EFFINGHAM*     CLOUDY    38  33  81 W17G25    30.00R WCI  28
MARION         CLEAR     42  34  74 NW3       30.04R
MT. VERNON     CLEAR     39  30  70 VRB5      30.02R
CENTRALIA*     CLEAR     39  32  76 NW10      30.01R WCI  32
SALEM*         CLEAR     39  30  70 NW14      30.01R WCI  31
METROPOLIS*    CLEAR     42  33  72 NW7       30.04R
$$

ILZ067-068-072-073-078-083-087-091-190700-
SOUTHEAST ILLINOIS

CITY           SKY/WX    TMP DP  RH WIND       PRES   REMARKS
LAWRENCEVILLE  CLOUDY    41  34  76 NW17      29.96R
FLORA*         PTCLDY    39  34  80 NW13      29.86R WCI  32
FAIRFIELD*     PTCLDY    39  33  76 NW3       30.00R
HARRISBURG*    CLEAR     40  33  76 NW13G18   30.02R
ROBINSON*      CLOUDY    39  34  82 NW16G22   29.95R WCI  30
CARMI*         CLEAR     38  34  85 W12       30.00R WCI  31
$$

ABBREVIATIONS USED IN REMARKS
   TC - TEMPERATURE IN CELSIUS
  WCI - WIND CHILL INDEX
   HX - HEAT INDEX
  VSB - VISIBILITY
$$





USA.gov is the U.S. government's official web portal to all federal, state and local government web resources and services.